Time,TemperatureF,DewpointF,PressureIn,WindDirection,WindDirectionDegrees,WindSpeedMPH,WindSpeedGustMPH,Humidity,HourlyPrecipIn,Conditions,Clouds,dailyrainin,SoftwareType,DateUTC
2013-03-24 00:06:00,53.8,53.2,29.74,NNE,22,10.3,-999.0,98,-99.99,,,0.00,Acu-Link.com,2013-03-24 05:06:00,
2013-03-24 00:22:00,53.2,52.7,29.75,NE,45,9.8,-999.0,98,-99.99,,,0.00,Acu-Link.com,2013-03-24 05:22:00,
2013-03-24 00:37:00,52.0,51.4,29.78,North,0,12.5,-999.0,98,-99.99,,,0.00,Acu-Link.com,2013-03-24 05:37:00,
2013-03-24 00:52:00,51.3,50.7,29.79,North,0,15.0,-999.0,98,-99.99,,,0.00,Acu-Link.com,2013-03-24 05:52:00,
2013-03-24 01:07:00,51.1,50.5,29.81,North,0,13.4,-999.0,98,-99.99,,,0.00,Acu-Link.com,2013-03-24 06:07:00,
2013-03-24 01:22:00,50.0,49.5,29.82,NNE,22,8.9,-999.0,98,-99.99,,,0.00,Acu-Link.com,2013-03-24 06:22:00,
2013-03-24 01:38:00,47.5,46.9,29.85,NNE,22,13.4,-999.0,98,-99.99,,,0.00,Acu-Link.com,2013-03-24 06:38:00,
2013-03-24 01:53:00,45.9,45.3,29.87,NNE,22,11.4,-999.0,98,-99.99,,,0.00,Acu-Link.com,2013-03-24 06:53:00,
2013-03-24 02:08:00,45.0,44.4,29.88,North,0,8.3,-999.0,98,-99.99,,,0.00,Acu-Link.com,2013-03-24 07:08:00,
2013-03-24 02:23:00,44.4,43.9,29.89,NE,45,7.8,-999.0,98,-99.99,,,0.00,Acu-Link.com,2013-03-24 07:23:00,
2013-03-24 02:38:00,44.2,43.7,29.92,North,0,4.7,-999.0,98,-99.99,,,0.00,Acu-Link.com,2013-03-24 07:38:00,
2013-03-24 02:54:00,43.9,42.3,29.92,East,90,6.3,-999.0,94,-99.99,,,0.00,Acu-Link.com,2013-03-24 07:54:00,
2013-03-24 03:09:00,43.5,40.8,29.93,North,0,8.3,-999.0,90,-99.99,,,0.00,Acu-Link.com,2013-03-24 08:09:00,
2013-03-24 03:24:00,43.2,39.9,29.94,North,0,8.9,-999.0,88,-99.99,,,0.00,Acu-Link.com,2013-03-24 08:24:00,
2013-03-24 03:39:00,42.8,39.2,29.94,NNE,22,5.8,-999.0,87,-99.99,,,0.00,Acu-Link.com,2013-03-24 08:39:00,
2013-03-24 03:54:00,41.0,35.3,29.95,NNW,337,11.9,-999.0,80,-99.99,,,0.00,Acu-Link.com,2013-03-24 08:54:00,
2013-03-24 04:09:00,39.9,34.3,29.95,ENE,67,8.3,-999.0,80,-99.99,,,0.00,Acu-Link.com,2013-03-24 09:09:00,
2013-03-24 04:25:00,39.4,34.7,29.97,NNE,22,4.7,-999.0,83,-99.99,,,0.00,Acu-Link.com,2013-03-24 09:25:00,
2013-03-24 04:40:00,39.0,32.8,29.97,NNE,22,6.3,-999.0,78,-99.99,,,0.00,Acu-Link.com,2013-03-24 09:40:00,
2013-03-24 04:55:00,38.3,31.4,29.98,North,0,5.8,-999.0,76,-99.99,,,0.00,Acu-Link.com,2013-03-24 09:55:00,
2013-03-24 05:10:00,37.4,30.9,29.98,NNW,337,4.3,-999.0,77,-99.99,,,0.00,Acu-Link.com,2013-03-24 10:10:00,
2013-03-24 05:25:00,36.7,29.8,30.00,NNW,337,5.1,-999.0,76,-99.99,,,0.00,Acu-Link.com,2013-03-24 10:25:00,
2013-03-24 05:41:00,36.0,29.1,29.99,WSW,247,8.3,-999.0,76,-99.99,,,0.00,Acu-Link.com,2013-03-24 10:41:00,
2013-03-24 05:56:00,35.6,29.1,30.00,North,0,9.4,-999.0,77,-99.99,,,0.00,Acu-Link.com,2013-03-24 10:56:00,
2013-03-24 06:11:00,35.1,29.2,30.01,WSW,247,3.1,-999.0,79,-99.99,,,0.00,Acu-Link.com,2013-03-24 11:11:00,
2013-03-24 06:26:00,35.1,29.2,30.02,SW,225,7.4,-999.0,79,-99.99,,,0.00,Acu-Link.com,2013-03-24 11:26:00,
2013-03-24 06:41:00,34.9,29.0,30.02,NNE,22,5.8,-999.0,79,-99.99,,,0.00,Acu-Link.com,2013-03-24 11:41:00,
2013-03-24 06:57:00,34.7,29.5,30.02,West,270,6.3,-999.0,81,-99.99,,,0.00,Acu-Link.com,2013-03-24 11:57:00,
2013-03-24 07:12:00,34.5,29.6,30.03,West,270,4.7,-999.0,82,-99.99,,,0.00,Acu-Link.com,2013-03-24 12:12:00,
2013-03-24 07:27:00,34.2,29.3,30.04,North,0,6.3,-999.0,82,-99.99,,,0.00,Acu-Link.com,2013-03-24 12:27:00,
2013-03-24 07:42:00,34.0,28.8,30.04,WSW,247,4.7,-999.0,81,-99.99,,,0.00,Acu-Link.com,2013-03-24 12:42:00,
2013-03-24 07:57:00,33.8,28.3,30.05,ENE,67,7.4,-999.0,80,-99.99,,,0.00,Acu-Link.com,2013-03-24 12:57:00,
2013-03-24 08:13:00,34.0,27.9,30.06,NNW,337,8.3,-999.0,78,-99.99,,,0.00,Acu-Link.com,2013-03-24 13:13:00,
2013-03-24 08:28:00,34.5,28.1,30.07,North,0,7.8,-999.0,77,-99.99,,,0.00,Acu-Link.com,2013-03-24 13:28:00,
2013-03-24 08:43:00,34.9,28.1,30.08,NE,45,6.3,-999.0,76,-99.99,,,0.00,Acu-Link.com,2013-03-24 13:43:00,
2013-03-24 08:58:00,35.4,28.0,30.09,West,270,5.1,-999.0,74,-99.99,,,0.00,Acu-Link.com,2013-03-24 13:58:00,
2013-03-24 09:13:00,36.0,27.5,30.10,WSW,247,5.1,-999.0,71,-99.99,,,0.00,Acu-Link.com,2013-03-24 14:13:00,
2013-03-24 09:29:00,36.3,27.5,30.11,NNW,337,8.9,-999.0,70,-99.99,,,0.00,Acu-Link.com,2013-03-24 14:29:00,
2013-03-24 09:44:00,37.2,27.6,30.11,WSW,247,9.4,-999.0,68,-99.99,,,0.00,Acu-Link.com,2013-03-24 14:44:00,
2013-03-24 09:59:00,38.3,27.6,30.12,North,0,7.8,-999.0,65,-99.99,,,0.00,Acu-Link.com,2013-03-24 14:59:00,
2013-03-24 10:14:00,39.2,27.3,30.11,NNW,337,8.9,-999.0,62,-99.99,,,0.00,Acu-Link.com,2013-03-24 15:14:00,
2013-03-24 10:29:00,40.1,27.7,30.11,North,0,4.3,-999.0,61,-99.99,,,0.00,Acu-Link.com,2013-03-24 15:29:00,
2013-03-24 10:30:00,40.1,27.7,30.11,North,0,4.3,-999.0,61,-99.99,,,0.00,Acu-Link.com,2013-03-24 15:30:00,
2013-03-24 10:45:00,40.8,27.6,30.12,West,270,4.7,-999.0,59,-99.99,,,0.00,Acu-Link.com,2013-03-24 15:45:00,
2013-03-24 11:00:00,41.0,26.9,30.13,NNW,337,6.7,-999.0,57,-99.99,,,0.00,Acu-Link.com,2013-03-24 16:00:00,
2013-03-24 11:15:00,42.4,27.4,30.13,West,270,6.3,-999.0,55,-99.99,,,0.00,Acu-Link.com,2013-03-24 16:15:00,
2013-03-24 11:30:00,43.3,27.8,30.13,NNW,337,5.8,-999.0,54,-99.99,,,0.00,Acu-Link.com,2013-03-24 16:30:00,
2013-03-24 11:46:00,46.0,29.4,30.13,NNE,22,8.9,-999.0,52,-99.99,,,0.00,Acu-Link.com,2013-03-24 16:46:00,
2013-03-24 12:01:00,45.7,28.6,30.12,NNE,22,6.7,-999.0,51,-99.99,,,0.00,Acu-Link.com,2013-03-24 17:01:00,
2013-03-24 12:16:00,46.0,28.5,30.12,WSW,247,6.3,-999.0,50,-99.99,,,0.00,Acu-Link.com,2013-03-24 17:16:00,
2013-03-24 12:46:00,48.0,28.8,30.11,NNW,337,8.9,-999.0,47,-99.99,,,0.00,Acu-Link.com,2013-03-24 17:46:00,
2013-03-24 13:17:00,50.5,30.0,30.09,West,270,6.7,-999.0,45,-99.99,,,0.00,Acu-Link.com,2013-03-24 18:17:00,
2013-03-24 13:32:00,50.5,30.0,30.09,ENE,67,5.8,-999.0,45,-99.99,,,0.00,Acu-Link.com,2013-03-24 18:32:00,
2013-03-24 13:47:00,50.2,29.1,30.08,NNE,22,11.4,-999.0,44,-99.99,,,0.00,Acu-Link.com,2013-03-24 18:47:00,
2013-03-24 14:02:00,52.0,29.0,30.07,NNE,22,6.3,-999.0,41,-99.99,,,0.00,Acu-Link.com,2013-03-24 19:02:00,
2013-03-24 14:18:00,51.6,29.3,30.07,North,0,6.7,-999.0,42,-99.99,,,0.00,Acu-Link.com,2013-03-24 19:18:00,
2013-03-24 14:33:00,53.4,29.7,30.07,West,270,6.7,-999.0,40,-99.99,,,0.00,Acu-Link.com,2013-03-24 19:33:00,
2013-03-24 14:48:00,52.5,28.9,30.05,East,90,9.4,-999.0,40,-99.99,,,0.00,Acu-Link.com,2013-03-24 19:48:00,
2013-03-24 15:03:00,53.6,29.9,30.04,NNE,22,5.8,-999.0,40,-99.99,,,0.00,Acu-Link.com,2013-03-24 20:03:00,
2013-03-24 15:18:00,53.8,29.4,30.03,North,0,7.8,-999.0,39,-99.99,,,0.00,Acu-Link.com,2013-03-24 20:18:00,
2013-03-24 15:34:00,52.9,28.6,30.03,NW,315,5.1,-999.0,39,-99.99,,,0.00,Acu-Link.com,2013-03-24 20:34:00,
2013-03-24 15:49:00,54.5,28.1,30.02,NNE,22,6.7,-999.0,36,-99.99,,,0.00,Acu-Link.com,2013-03-24 20:49:00,
2013-03-24 16:04:00,54.5,28.1,30.01,NNE,22,5.8,-999.0,36,-99.99,,,0.00,Acu-Link.com,2013-03-24 21:04:00,
2013-03-24 16:19:00,55.0,28.6,30.01,West,270,7.8,-999.0,36,-99.99,,,0.00,Acu-Link.com,2013-03-24 21:19:00,
2013-03-24 16:35:00,55.2,28.1,30.00,North,0,4.3,-999.0,35,-99.99,,,0.00,Acu-Link.com,2013-03-24 21:35:00,
2013-03-24 16:50:00,54.0,26.9,30.00,NW,315,6.3,-999.0,35,-99.99,,,0.00,Acu-Link.com,2013-03-24 21:50:00,
2013-03-24 17:05:00,54.0,27.6,29.99,North,0,6.7,-999.0,36,-99.99,,,0.00,Acu-Link.com,2013-03-24 22:05:00,
2013-03-24 17:20:00,54.3,27.3,29.98,NNE,22,8.9,-999.0,35,-99.99,,,0.00,Acu-Link.com,2013-03-24 22:20:00,
2013-03-24 17:35:00,54.0,26.9,29.98,NNE,22,6.3,-999.0,35,-99.99,,,0.00,Acu-Link.com,2013-03-24 22:35:00,
2013-03-24 17:51:00,54.3,27.3,29.98,North,0,7.8,-999.0,35,-99.99,,,0.00,Acu-Link.com,2013-03-24 22:51:00,
2013-03-24 18:06:00,53.4,25.0,29.98,North,0,5.1,-999.0,33,-99.99,,,0.00,Acu-Link.com,2013-03-24 23:06:00,
2013-03-24 18:21:00,53.6,25.9,29.98,WNW,292,6.7,-999.0,34,-99.99,,,0.00,Acu-Link.com,2013-03-24 23:21:00,
2013-03-24 18:36:00,53.1,25.4,29.98,NE,45,8.9,-999.0,34,-99.99,,,0.00,Acu-Link.com,2013-03-24 23:36:00,
2013-03-24 18:51:00,52.2,25.4,29.99,NE,45,7.4,-999.0,35,-99.99,,,0.00,Acu-Link.com,2013-03-24 23:51:00,
2013-03-24 19:07:00,50.9,23.5,29.99,ENE,67,6.3,-999.0,34,-99.99,,,0.00,Acu-Link.com,2013-03-25 00:07:00,
2013-03-24 19:22:00,50.2,23.6,29.99,North,0,4.3,-999.0,35,-99.99,,,0.00,Acu-Link.com,2013-03-25 00:22:00,
2013-03-24 19:37:00,49.1,23.3,29.99,NE,45,4.3,-999.0,36,-99.99,,,0.00,Acu-Link.com,2013-03-25 00:37:00,
2013-03-24 19:52:00,47.8,23.5,30.00,NNE,22,2.7,-999.0,38,-99.99,,,0.00,Acu-Link.com,2013-03-25 00:52:00,
2013-03-24 20:07:00,46.9,23.9,30.00,ENE,67,3.1,-999.0,40,-99.99,,,0.00,Acu-Link.com,2013-03-25 01:07:00,
2013-03-24 20:23:00,46.4,23.4,30.01,NE,45,4.3,-999.0,40,-99.99,,,0.00,Acu-Link.com,2013-03-25 01:23:00,
2013-03-24 20:38:00,45.1,22.9,30.02,NNE,22,1.6,-999.0,41,-99.99,,,0.00,Acu-Link.com,2013-03-25 01:38:00,
2013-03-24 20:53:00,43.5,22.5,30.02,NE,45,0.0,-999.0,43,-99.99,,,0.00,Acu-Link.com,2013-03-25 01:53:00,
2013-03-24 21:08:00,41.9,22.6,30.03,NNE,22,0.0,-999.0,46,-99.99,,,0.00,Acu-Link.com,2013-03-25 02:08:00,
2013-03-24 21:24:00,40.6,22.5,30.04,NNE,22,0.0,-999.0,48,-99.99,,,0.00,Acu-Link.com,2013-03-25 02:24:00,
2013-03-24 21:39:00,39.4,21.8,30.05,North,0,0.0,-999.0,49,-99.99,,,0.00,Acu-Link.com,2013-03-25 02:39:00,
2013-03-24 21:54:00,36.5,21.9,30.06,WNW,292,0.0,-999.0,55,-99.99,,,0.00,Acu-Link.com,2013-03-25 02:54:00,
2013-03-24 22:09:00,35.6,21.9,30.06,NNE,22,0.0,-999.0,57,-99.99,,,0.00,Acu-Link.com,2013-03-25 03:09:00,
2013-03-24 22:24:00,34.5,21.7,30.06,NNE,22,0.0,-999.0,59,-99.99,,,0.00,Acu-Link.com,2013-03-25 03:24:00,
2013-03-24 22:40:00,34.9,22.0,30.07,NNE,22,1.1,-999.0,59,-99.99,,,0.00,Acu-Link.com,2013-03-25 03:40:00,
2013-03-24 22:55:00,34.5,22.1,30.08,NE,45,0.0,-999.0,60,-99.99,,,0.00,Acu-Link.com,2013-03-25 03:55:00,
2013-03-24 23:10:00,33.8,21.4,30.08,North,0,0.0,-999.0,60,-99.99,,,0.00,Acu-Link.com,2013-03-25 04:10:00,
2013-03-24 23:25:00,32.9,21.3,30.08,NE,45,0.0,-999.0,62,-99.99,,,0.00,Acu-Link.com,2013-03-25 04:25:00,
2013-03-24 23:40:00,31.3,20.9,30.08,NE,45,0.0,-999.0,65,-99.99,,,0.00,Acu-Link.com,2013-03-25 04:40:00,
2013-03-24 23:56:00,30.0,21.1,30.08,WNW,292,0.0,-999.0,69,-99.99,,,0.00,Acu-Link.com,2013-03-25 04:56:00,